Time,TemperatureF,DewpointF,PressureIn,WindDirection,WindDirectionDegrees,WindSpeedMPH,WindSpeedGustMPH,Humidity,HourlyPrecipIn,Conditions,Clouds,dailyrainin,SoftwareType,DateUTC
2013-06-25 00:00:00,63.3,58.7,29.88,ENE,59,5.0,11.0,85,0.00,RA,OVC,0.00,WeatherDisplay:10.37,2013-06-25 07:00:00,
2013-06-25 00:10:00,63.3,58.7,29.89,NE,52,3.0,11.0,85,0.00,CLR,OVC,0.00,WeatherDisplay:10.37,2013-06-25 07:10:00,
2013-06-25 00:20:00,63.1,58.6,29.89,NE,52,2.0,8.0,85,0.00,CLR,OVC,0.00,WeatherDisplay:10.37,2013-06-25 07:20:00,
2013-06-25 00:30:00,63.3,58.4,29.89,NE,47,3.0,10.0,84,0.00,CLR,OVC,0.00,WeatherDisplay:10.37,2013-06-25 07:30:00,
2013-06-25 00:40:00,63.3,58.1,29.89,ENE,60,3.0,9.0,83,0.00,CLR,OVC,0.00,WeatherDisplay:10.37,2013-06-25 07:40:00,
2013-06-25 00:50:00,63.3,58.1,29.89,ENE,61,3.0,6.0,83,0.00,CLR,OVC,0.00,WeatherDisplay:10.37,2013-06-25 07:50:00,
2013-06-25 01:00:00,63.1,57.6,29.89,ENE,62,1.0,7.0,82,0.00,CLR,OVC,0.00,WeatherDisplay:10.37,2013-06-25 08:00:00,
2013-06-25 01:10:00,63.1,57.6,29.89,ENE,62,5.0,8.0,82,0.00,CLR,OVC,0.00,WeatherDisplay:10.37,2013-06-25 08:10:00,
2013-06-25 01:20:00,63.1,57.6,29.89,ENE,66,3.0,13.0,82,0.00,CLR,OVC,0.00,WeatherDisplay:10.37,2013-06-25 08:20:00,
2013-06-25 01:30:00,63.3,57.7,29.89,ENE,67,1.0,8.0,82,0.00,CLR,OVC,0.00,WeatherDisplay:10.37,2013-06-25 08:30:00,
2013-06-25 01:40:00,63.3,57.7,29.88,ENE,65,1.0,6.0,82,0.00,CLR,OVC,0.00,WeatherDisplay:10.37,2013-06-25 08:40:00,
2013-06-25 01:50:00,63.3,57.7,29.89,East,83,3.0,9.0,82,0.00,CLR,OVC,0.00,WeatherDisplay:10.37,2013-06-25 08:50:00,
2013-06-25 02:00:00,63.1,57.6,29.88,ENE,74,2.0,12.0,82,0.00,CLR,OVC,0.00,WeatherDisplay:10.37,2013-06-25 09:00:00,
2013-06-25 02:10:00,63.1,57.9,29.89,East,92,1.0,8.0,83,0.00,CLR,OVC,0.00,WeatherDisplay:10.37,2013-06-25 09:10:00,
2013-06-25 02:20:00,63.0,57.7,29.89,East,91,2.0,7.0,83,0.00,CLR,OVC,0.00,WeatherDisplay:10.37,2013-06-25 09:20:00,
2013-06-25 02:30:00,63.0,57.7,29.89,NE,49,2.0,8.0,83,0.00,CLR,OVC,0.00,WeatherDisplay:10.37,2013-06-25 09:30:00,
2013-06-25 02:40:00,63.0,57.7,29.89,ENE,72,1.0,10.0,83,0.00,CLR,OVC,0.00,WeatherDisplay:10.37,2013-06-25 09:40:00,
2013-06-25 02:50:00,62.8,57.9,29.88,ENE,69,1.0,6.0,84,0.00,CLR,OVC,0.00,WeatherDisplay:10.37,2013-06-25 09:50:00,
2013-06-25 03:00:00,62.8,57.9,29.89,ESE,104,1.0,6.0,84,0.00,CLR,OVC,0.00,WeatherDisplay:10.37,2013-06-25 10:00:00,
2013-06-25 03:10:00,62.8,57.9,29.89,ENE,65,1.0,3.0,84,0.00,CLR,OVC,0.00,WeatherDisplay:10.37,2013-06-25 10:10:00,
2013-06-25 03:20:00,62.8,58.2,29.89,East,89,2.0,8.0,85,0.00,CLR,OVC,0.00,WeatherDisplay:10.37,2013-06-25 10:20:00,
2013-06-25 03:30:00,62.8,58.2,29.88,East,90,2.0,8.0,85,0.00,CLR,OVC,0.00,WeatherDisplay:10.37,2013-06-25 10:30:00,
2013-06-25 03:40:00,62.8,58.2,29.89,NE,50,2.0,7.0,85,0.00,CLR,OVC,0.00,WeatherDisplay:10.37,2013-06-25 10:40:00,
2013-06-25 03:50:00,62.8,58.2,29.88,ENE,74,3.0,12.0,85,0.00,CLR,OVC,0.00,WeatherDisplay:10.37,2013-06-25 10:50:00,
2013-06-25 04:00:00,62.8,58.5,29.88,ENE,64,3.0,10.0,86,0.00,CLR,OVC,0.00,WeatherDisplay:10.37,2013-06-25 11:00:00,
2013-06-25 04:10:00,62.6,58.7,29.88,East,79,2.0,10.0,87,0.00,CLR,OVC,0.00,WeatherDisplay:10.37,2013-06-25 11:10:00,
2013-06-25 04:20:00,62.6,58.7,29.89,ENE,58,5.0,13.0,87,0.00,CLR,OVC,0.00,WeatherDisplay:10.37,2013-06-25 11:20:00,
2013-06-25 04:30:00,62.6,58.7,29.89,NE,48,1.0,8.0,87,0.00,CLR,OVC,0.00,WeatherDisplay:10.37,2013-06-25 11:30:00,
2013-06-25 04:40:00,62.5,58.6,29.88,ENE,77,3.0,8.0,87,0.00,CLR,OVC,0.00,WeatherDisplay:10.37,2013-06-25 11:40:00,
2013-06-25 04:50:00,62.4,58.8,29.89,ENE,63,3.0,13.0,88,0.00,CLR,OVC,0.00,WeatherDisplay:10.37,2013-06-25 11:50:00,
2013-06-25 05:00:00,62.2,58.6,29.88,East,95,3.0,12.0,88,0.00,CLR,OVC,0.00,WeatherDisplay:10.37,2013-06-25 12:00:00,
2013-06-25 05:10:00,62.2,59.0,29.89,NE,45,2.0,12.0,89,0.00,CLR,OVC,0.00,WeatherDisplay:10.37,2013-06-25 12:10:00,
2013-06-25 05:20:00,62.1,58.8,29.89,ENE,74,2.0,10.0,89,0.00,CLR,OVC,0.00,WeatherDisplay:10.37,2013-06-25 12:20:00,
2013-06-25 05:30:00,62.0,58.4,29.89,ENE,72,3.0,11.0,88,0.00,CLR,OVC,0.00,WeatherDisplay:10.37,2013-06-25 12:30:00,
2013-06-25 05:40:00,61.7,58.4,29.89,ENE,62,1.0,9.0,89,0.00,CLR,OVC,0.00,WeatherDisplay:10.37,2013-06-25 12:40:00,
2013-06-25 05:50:00,61.8,58.6,29.89,East,79,7.0,9.0,89,0.00,CLR,OVC,0.00,WeatherDisplay:10.37,2013-06-25 12:50:00,
2013-06-25 06:00:00,62.1,58.5,29.89,ENE,75,1.0,13.0,88,0.00,CLR,OVC,0.00,WeatherDisplay:10.37,2013-06-25 13:00:00,
2013-06-25 06:10:00,62.2,58.6,29.90,East,99,3.0,10.0,88,0.00,CLR,OVC,0.00,WeatherDisplay:10.37,2013-06-25 13:10:00,
2013-06-25 06:20:00,62.1,58.5,29.90,East,79,3.0,12.0,88,0.00,CLR,OVC,0.00,WeatherDisplay:10.37,2013-06-25 13:20:00,
2013-06-25 06:30:00,62.1,58.5,29.89,East,94,1.0,8.0,88,0.00,CLR,OVC,0.00,WeatherDisplay:10.37,2013-06-25 13:30:00,
2013-06-25 06:40:00,62.1,58.5,29.90,ENE,57,2.0,9.0,88,0.00,CLR,OVC,0.00,WeatherDisplay:10.37,2013-06-25 13:40:00,
2013-06-25 06:50:00,62.2,58.6,29.90,NE,56,3.0,10.0,88,0.00,CLR,OVC,0.00,WeatherDisplay:10.37,2013-06-25 13:50:00,
2013-06-25 07:00:00,62.6,58.7,29.91,ENE,69,2.0,8.0,87,0.00,CLR,OVC,0.00,WeatherDisplay:10.37,2013-06-25 14:00:00,
2013-06-25 07:10:00,63.0,58.7,29.91,SSE,155,2.0,12.0,86,0.00,CLR,OVC,0.00,WeatherDisplay:10.37,2013-06-25 14:10:00,
2013-06-25 07:20:00,63.2,59.0,29.91,NE,53,5.0,10.0,86,0.00,CLR,OVC,0.00,WeatherDisplay:10.37,2013-06-25 14:20:00,
2013-06-25 07:30:00,63.5,58.9,29.91,ENE,60,3.0,12.0,85,0.00,CLR,OVC,0.00,WeatherDisplay:10.37,2013-06-25 14:30:00,
2013-06-25 07:40:00,63.7,59.1,29.91,ENE,61,1.0,9.0,85,0.00,CLR,OVC,0.00,WeatherDisplay:10.37,2013-06-25 14:40:00,
2013-06-25 07:50:00,63.9,59.3,29.91,ESE,112,3.0,13.0,85,0.00,CLR,OVC,0.00,WeatherDisplay:10.37,2013-06-25 14:50:00,
2013-06-25 08:00:00,63.9,59.3,29.91,NE,41,3.0,12.0,85,0.00,CLR,OVC,0.00,WeatherDisplay:10.37,2013-06-25 15:00:00,
2013-06-25 08:10:00,64.9,60.3,29.91,ENE,69,2.0,13.0,85,0.00,CLR,OVC,0.00,WeatherDisplay:10.37,2013-06-25 15:10:00,
2013-06-25 08:20:00,68.2,61.1,29.91,East,81,2.0,12.0,78,0.00,CLR,OVC,0.00,WeatherDisplay:10.37,2013-06-25 15:20:00,
2013-06-25 08:30:00,67.3,60.2,29.91,ENE,65,2.0,13.0,78,0.00,CLR,OVC,0.00,WeatherDisplay:10.37,2013-06-25 15:30:00,
2013-06-25 08:40:00,66.9,60.5,29.92,ENE,76,1.0,10.0,80,0.00,CLR,OVC,0.00,WeatherDisplay:10.37,2013-06-25 15:40:00,
2013-06-25 08:50:00,68.4,61.2,29.91,ENE,57,2.0,8.0,78,0.00,CLR,OVC,0.00,WeatherDisplay:10.37,2013-06-25 15:50:00,
2013-06-25 09:00:00,68.0,60.5,29.92,ESE,121,3.0,8.0,77,0.00,CLR,OVC,0.00,WeatherDisplay:10.37,2013-06-25 16:00:00,
2013-06-25 09:10:00,67.3,61.2,29.93,ENE,76,1.0,6.0,81,0.00,CLR,OVC,0.00,WeatherDisplay:10.37,2013-06-25 16:10:00,
2013-06-25 09:20:00,67.6,61.5,29.93,ESE,108,3.0,10.0,81,0.00,CLR,OVC,0.00,WeatherDisplay:10.37,2013-06-25 16:20:00,
2013-06-25 09:30:00,67.8,61.4,29.93,East,89,2.0,8.0,80,0.00,CLR,OVC,0.00,WeatherDisplay:10.37,2013-06-25 16:30:00,
2013-06-25 09:40:00,68.2,61.4,29.93,ESE,113,3.0,11.0,79,0.00,CLR,OVC,0.00,WeatherDisplay:10.37,2013-06-25 16:40:00,
2013-06-25 09:50:00,68.5,61.4,29.93,ESE,106,3.0,9.0,78,0.00,CLR,OVC,0.00,WeatherDisplay:10.37,2013-06-25 16:50:00,
2013-06-25 10:00:00,68.0,60.9,29.94,SSE,161,6.0,12.0,78,0.00,CLR,OVC,0.00,WeatherDisplay:10.37,2013-06-25 17:00:00,
2013-06-25 10:10:00,68.0,61.2,29.94,ESE,123,2.0,8.0,79,0.00,CLR,OVC,0.00,WeatherDisplay:10.37,2013-06-25 17:10:00,
2013-06-25 10:20:00,68.4,61.6,29.94,ESE,110,3.0,10.0,79,0.00,CLR,OVC,0.00,WeatherDisplay:10.37,2013-06-25 17:20:00,
2013-06-25 10:30:00,68.9,61.8,29.94,SE,133,3.0,8.0,78,0.00,CLR,OVC,0.00,WeatherDisplay:10.37,2013-06-25 17:30:00,
2013-06-25 10:40:00,68.9,61.8,29.94,SE,124,2.0,9.0,78,0.00,CLR,OVC,0.00,WeatherDisplay:10.37,2013-06-25 17:40:00,
2013-06-25 10:50:00,69.1,61.6,29.94,SE,130,3.0,10.0,77,0.00,CLR,OVC,0.00,WeatherDisplay:10.37,2013-06-25 17:50:00,
2013-06-25 11:00:00,69.1,61.2,29.95,East,88,3.0,11.0,76,0.00,CLR,OVC,0.00,WeatherDisplay:10.37,2013-06-25 18:00:00,
2013-06-25 11:10:00,69.6,61.7,29.95,SSW,207,6.0,12.0,76,0.00,CLR,OVC,0.00,WeatherDisplay:10.37,2013-06-25 18:10:00,
2013-06-25 11:22:00,70.9,61.8,29.96,ESE,119,2.0,12.0,73,0.00,CLR,OVC,0.00,WeatherDisplay:10.37,2013-06-25 18:22:00,
2013-06-25 11:30:00,72.5,62.6,29.95,SE,128,2.0,8.0,71,0.00,CLR,OVC,0.00,WeatherDisplay:10.37,2013-06-25 18:30:00,
2013-06-25 11:40:00,76.2,64.0,29.96,ESE,119,2.0,12.0,66,0.00,CLR,OVC,0.00,WeatherDisplay:10.37,2013-06-25 18:40:00,
2013-06-25 11:50:00,78.6,63.0,29.96,East,79,5.0,12.0,59,0.00,CLR,OVC,0.00,WeatherDisplay:10.37,2013-06-25 18:50:00,
2013-06-25 12:00:00,75.5,62.9,29.96,NE,52,1.0,12.0,65,0.00,CLR,OVC,0.00,WeatherDisplay:10.37,2013-06-25 19:00:00,
2013-06-25 12:10:00,74.5,62.8,29.97,ENE,63,2.0,12.0,67,0.00,CLR,OVC,0.00,WeatherDisplay:10.37,2013-06-25 19:10:00,
2013-06-25 12:20:00,74.5,62.8,29.97,ESE,106,2.0,8.0,67,0.00,CLR,OVC,0.00,WeatherDisplay:10.37,2013-06-25 19:20:00,
2013-06-25 12:30:00,73.0,62.7,29.97,ENE,73,2.0,11.0,70,0.00,CLR,OVC,0.00,WeatherDisplay:10.37,2013-06-25 19:30:00,
2013-06-25 12:40:00,72.3,62.4,29.97,ENE,70,1.0,8.0,71,0.00,CLR,OVC,0.00,WeatherDisplay:10.37,2013-06-25 19:40:00,
2013-06-25 12:50:00,73.4,63.0,29.97,ENE,64,5.0,9.0,70,0.00,CLR,OVC,0.00,WeatherDisplay:10.37,2013-06-25 19:50:00,
2013-06-25 13:00:00,74.4,63.6,29.97,East,86,2.0,8.0,69,0.00,CLR,OVC,0.00,WeatherDisplay:10.37,2013-06-25 20:00:00,
2013-06-25 13:10:00,74.7,63.8,29.97,East,84,2.0,6.0,69,0.00,CLR,OVC,0.00,WeatherDisplay:10.37,2013-06-25 20:10:00,
2013-06-25 13:20:00,74.7,63.8,29.97,East,90,3.0,9.0,69,0.00,CLR,OVC,0.00,WeatherDisplay:10.37,2013-06-25 20:20:00,
2013-06-25 13:30:00,74.7,63.8,29.97,East,93,2.0,7.0,69,0.00,CLR,OVC,0.00,WeatherDisplay:10.37,2013-06-25 20:30:00,
2013-06-25 13:40:00,75.4,64.1,29.96,ENE,77,1.0,9.0,68,0.00,CLR,OVC,0.00,WeatherDisplay:10.37,2013-06-25 20:40:00,
2013-06-25 13:50:00,77.5,64.8,29.96,SE,139,2.0,6.0,65,0.00,CLR,OVC,0.00,WeatherDisplay:10.37,2013-06-25 20:50:00,
2013-06-25 14:00:00,78.4,64.8,29.96,ENE,78,2.0,8.0,63,0.00,CLR,OVC,0.00,WeatherDisplay:10.37,2013-06-25 21:00:00,
2013-06-25 14:10:00,80.2,65.6,29.96,ENE,65,3.0,7.0,61,0.00,CLR,OVC,0.00,WeatherDisplay:10.37,2013-06-25 21:10:00,
2013-06-25 14:20:00,79.9,64.8,29.96,ESE,109,2.0,7.0,60,0.00,CLR,OVC,0.00,WeatherDisplay:10.37,2013-06-25 21:20:00,
2013-06-25 14:30:00,82.9,65.6,29.96,ESE,120,3.0,7.0,56,0.00,CLR,OVC,0.00,WeatherDisplay:10.37,2013-06-25 21:30:00,
2013-06-25 14:40:00,80.2,64.1,29.96,ENE,74,3.0,8.0,58,0.00,CLR,OVC,0.00,WeatherDisplay:10.37,2013-06-25 21:40:00,
2013-06-25 14:50:00,78.1,64.5,29.96,ESE,108,3.0,8.0,63,0.00,CLR,OVC,0.00,WeatherDisplay:10.37,2013-06-25 21:50:00,
2013-06-25 15:00:00,76.8,64.6,29.96,ENE,68,5.0,12.0,66,0.00,CLR,OVC,0.00,WeatherDisplay:10.37,2013-06-25 22:00:00,
2013-06-25 15:10:00,77.7,65.0,29.96,ENE,60,3.0,6.0,65,0.00,CLR,OVC,0.00,WeatherDisplay:10.37,2013-06-25 22:10:00,
2013-06-25 15:20:00,78.3,65.1,29.96,SSE,159,5.0,12.0,64,0.00,CLR,OVC,0.00,WeatherDisplay:10.37,2013-06-25 22:20:00,
2013-06-25 15:30:00,79.9,65.7,29.95,SSE,167,5.0,12.0,62,0.00,CLR,OVC,0.00,WeatherDisplay:10.37,2013-06-25 22:30:00,
2013-06-25 15:40:00,78.7,64.6,29.95,South,178,5.0,9.0,62,0.00,CLR,OVC,0.00,WeatherDisplay:10.37,2013-06-25 22:40:00,
2013-06-25 15:50:00,78.9,65.2,29.95,SE,127,3.0,8.0,63,0.00,CLR,OVC,0.00,WeatherDisplay:10.37,2013-06-25 22:50:00,
2013-06-25 16:00:00,78.4,65.2,29.95,SE,143,3.0,11.0,64,0.00,CLR,OVC,0.00,WeatherDisplay:10.37,2013-06-25 23:00:00,
2013-06-25 16:10:00,79.2,65.0,29.95,SSE,148,2.0,10.0,62,0.00,CLR,OVC,0.00,WeatherDisplay:10.37,2013-06-25 23:10:00,
2013-06-25 16:20:00,77.7,65.0,29.95,SSW,193,2.0,14.0,65,0.00,CLR,OVC,0.00,WeatherDisplay:10.37,2013-06-25 23:20:00,
2013-06-25 16:30:00,79.0,65.8,29.94,SE,136,2.0,8.0,64,0.00,CLR,OVC,0.00,WeatherDisplay:10.37,2013-06-25 23:30:00,
2013-06-25 16:40:00,79.7,65.5,29.94,SE,125,2.0,11.0,62,0.00,CLR,OVC,0.00,WeatherDisplay:10.37,2013-06-25 23:40:00,
2013-06-25 16:50:00,82.0,65.3,29.94,SE,130,5.0,11.0,57,0.00,CLR,OVC,0.00,WeatherDisplay:10.37,2013-06-25 23:50:00,
2013-06-25 17:00:00,84.4,65.9,29.94,SE,129,1.0,10.0,54,0.00,CLR,OVC,0.00,WeatherDisplay:10.37,2013-06-26 00:00:00,
2013-06-25 17:10:00,84.5,66.6,29.94,SE,135,3.0,8.0,55,0.00,CLR,OVC,0.00,WeatherDisplay:10.37,2013-06-26 00:10:00,
2013-06-25 17:20:00,85.4,66.9,29.93,ESE,107,3.0,7.0,54,0.00,CLR,OVC,0.00,WeatherDisplay:10.37,2013-06-26 00:20:00,
2013-06-25 17:30:00,85.0,66.5,29.93,East,88,2.0,9.0,54,0.00,CLR,OVC,0.00,WeatherDisplay:10.37,2013-06-26 00:30:00,
2013-06-25 17:40:00,85.1,66.1,29.92,East,98,2.0,8.0,53,0.00,CLR,OVC,0.00,WeatherDisplay:10.37,2013-06-26 00:40:00,
2013-06-25 17:50:00,83.1,65.8,29.93,ESE,121,3.0,12.0,56,0.00,CLR,OVC,0.00,WeatherDisplay:10.37,2013-06-26 00:50:00,
2013-06-25 18:00:00,84.5,66.0,29.92,East,86,2.0,7.0,54,0.00,CLR,OVC,0.00,WeatherDisplay:10.37,2013-06-26 01:00:00,
2013-06-25 18:10:00,84.7,66.3,29.93,ESE,116,2.0,6.0,54,0.00,CLR,OVC,0.00,WeatherDisplay:10.37,2013-06-26 01:10:00,
2013-06-25 18:20:00,84.0,66.1,29.92,SE,139,3.0,7.0,55,0.00,CLR,OVC,0.00,WeatherDisplay:10.37,2013-06-26 01:20:00,
2013-06-25 18:30:00,83.1,65.3,29.93,SSE,161,5.0,11.0,55,0.00,CLR,OVC,0.00,WeatherDisplay:10.37,2013-06-26 01:30:00,
2013-06-25 18:40:00,83.6,65.7,29.93,SE,142,2.0,8.0,55,0.00,CLR,OVC,0.00,WeatherDisplay:10.37,2013-06-26 01:40:00,
2013-06-25 18:50:00,83.9,66.0,29.93,SSE,164,2.0,9.0,55,0.00,CLR,OVC,0.00,WeatherDisplay:10.37,2013-06-26 01:50:00,
2013-06-25 19:00:00,80.9,63.7,29.92,SSE,152,6.0,8.0,56,0.00,CLR,OVC,0.00,WeatherDisplay:10.37,2013-06-26 02:00:00,
2013-06-25 19:10:00,76.7,64.0,29.92,South,179,2.0,11.0,65,0.00,CLR,OVC,0.00,WeatherDisplay:10.37,2013-06-26 02:10:00,
2013-06-25 19:20:00,76.2,64.0,29.92,SE,140,1.0,7.0,66,0.00,CLR,OVC,0.00,WeatherDisplay:10.37,2013-06-26 02:20:00,
2013-06-25 19:30:00,77.9,64.7,29.92,SSE,168,5.0,8.0,64,0.00,CLR,OVC,0.00,WeatherDisplay:10.37,2013-06-26 02:30:00,
2013-06-25 19:40:00,78.4,64.8,29.92,South,181,1.0,8.0,63,0.00,CLR,OVC,0.00,WeatherDisplay:10.37,2013-06-26 02:40:00,
2013-06-25 19:50:00,76.9,64.2,29.92,South,169,3.0,7.0,65,0.00,CLR,OVC,0.00,WeatherDisplay:10.37,2013-06-26 02:50:00,
2013-06-25 20:00:00,75.0,64.6,29.92,South,170,5.0,9.0,70,0.00,CLR,OVC,0.00,WeatherDisplay:10.37,2013-06-26 03:00:00,
2013-06-25 20:10:00,73.3,64.1,29.92,SE,144,2.0,9.0,73,0.00,CLR,OVC,0.00,WeatherDisplay:10.37,2013-06-26 03:10:00,
2013-06-25 20:20:00,72.1,63.4,29.92,SSE,150,1.0,8.0,74,0.00,CLR,OVC,0.00,WeatherDisplay:10.37,2013-06-26 03:20:00,
2013-06-25 20:30:00,71.6,63.3,29.92,SSE,159,3.0,6.0,75,0.00,CLR,OVC,0.00,WeatherDisplay:10.37,2013-06-26 03:30:00,
2013-06-25 20:40:00,71.1,63.5,29.92,South,170,3.0,6.0,77,0.00,CLR,OVC,0.00,WeatherDisplay:10.37,2013-06-26 03:40:00,
2013-06-25 20:50:00,70.8,63.6,29.92,SSE,157,1.0,6.0,78,0.00,CLR,OVC,0.00,WeatherDisplay:10.37,2013-06-26 03:50:00,
2013-06-25 21:00:00,70.4,63.6,29.93,SSE,155,2.0,7.0,79,0.00,CLR,OVC,0.00,WeatherDisplay:10.37,2013-06-26 04:00:00,
2013-06-25 21:10:00,70.3,63.5,29.93,SSE,147,0.0,6.0,79,0.00,CLR,OVC,0.00,WeatherDisplay:10.37,2013-06-26 04:10:00,
2013-06-25 21:20:00,70.0,63.2,29.93,SE,139,0.0,2.0,79,0.00,CLR,OVC,0.00,WeatherDisplay:10.37,2013-06-26 04:20:00,
2013-06-25 21:30:00,70.0,63.5,29.94,SE,135,1.0,2.0,80,0.00,CLR,OVC,0.00,WeatherDisplay:10.37,2013-06-26 04:30:00,
2013-06-25 21:40:00,69.8,63.7,29.94,SE,135,0.0,2.0,81,0.00,CLR,OVC,0.00,WeatherDisplay:10.37,2013-06-26 04:40:00,
2013-06-25 21:50:00,69.6,64.2,29.94,ESE,111,0.0,2.0,83,0.00,CLR,OVC,0.00,WeatherDisplay:10.37,2013-06-26 04:50:00,
2013-06-25 22:00:00,69.3,63.9,29.94,East,90,0.0,1.0,83,0.00,CLR,OVC,0.00,WeatherDisplay:10.37,2013-06-26 05:00:00,
2013-06-25 22:10:00,69.1,64.0,29.95,ENE,75,0.0,2.0,84,0.00,CLR,OVC,0.00,WeatherDisplay:10.37,2013-06-26 05:10:00,
2013-06-25 22:20:00,68.7,64.0,29.95,NE,45,1.0,2.0,85,0.00,CLR,OVC,0.00,WeatherDisplay:10.37,2013-06-26 05:20:00,
2013-06-25 22:30:00,68.5,64.2,29.95,North,352,1.0,3.0,86,0.00,CLR,OVC,0.00,WeatherDisplay:10.37,2013-06-26 05:30:00,
2013-06-25 22:40:00,68.3,64.3,29.96,NW,326,0.0,4.0,87,0.00,CLR,OVC,0.00,WeatherDisplay:10.37,2013-06-26 05:40:00,
2013-06-25 22:50:00,67.8,64.1,29.95,North,2,1.0,4.0,88,0.00,CLR,OVC,0.00,WeatherDisplay:10.37,2013-06-26 05:50:00,
2013-06-25 23:00:00,67.3,64.2,29.96,NNE,33,0.0,2.0,90,0.00,CLR,OVC,0.00,WeatherDisplay:10.37,2013-06-26 06:00:00,
2013-06-25 23:10:00,66.9,63.9,29.96,NE,39,0.0,2.0,90,0.00,CLR,OVC,0.00,WeatherDisplay:10.37,2013-06-26 06:10:00,
2013-06-25 23:20:00,66.7,64.0,29.97,NE,45,0.0,2.0,91,0.00,CLR,OVC,0.00,WeatherDisplay:10.37,2013-06-26 06:20:00,
2013-06-25 23:30:00,66.4,64.0,29.96,NE,45,1.0,2.0,92,0.00,CLR,OVC,0.00,WeatherDisplay:10.37,2013-06-26 06:30:00,
2013-06-25 23:40:00,66.2,63.8,29.96,NE,45,0.0,2.0,92,0.00,CLR,OVC,0.00,WeatherDisplay:10.37,2013-06-26 06:40:00,
2013-06-25 23:50:00,66.0,64.2,29.97,NE,45,0.0,2.0,94,0.00,CLR,OVC,0.00,WeatherDisplay:10.37,2013-06-26 06:50:00,